Kosmos-972

operational
NORAD ID: 10539 Int'l Des: 1977-123 Owner: YUZH Country: SU
LEO

关于 Kosmos-972

正在加载描述...

实时位置

正在加载3D地球...

即将过境

高度历史

Altitude vs Time

uPlot chart will show altitude changes over time

两行轨道根数

1 10539U 77123A 26061.64532631 .00000097 00000-0 61107-4 0 9998
2 10539 75.8316 266.9983 0301539 70.4284 292.9143 13.89153035441253
Epoch: Mar 2, 2026 • Age: 30 hours

当前状态

高度 724.3 km
速度 7.61 km/s
星下点 69.96°N, 63.69°E
发射日期 Dec 27, 1977
运行时间 48.1 years
类型 other

技术详情

分类 Payload
质量 1700.00 kg
干质量 1700.00 kg
总质量 1700.00 kg
长度 3.20 m
直径 1.30 m
跨度 3.20 m
形状 Cyl
制造商 YUZH
平台类型 GVM
阶段状态 In Orbit
所有者/国家 YUZH/SU

大型星座

Loading constellations...